Change the Weather History Date:

Saturday, May 17, 2014

  Actual Average Record
Temperature  
Mean Temperature 55 °F -  
Max Temperature 69 °F 65 °F 75 °F (2002)
Min Temperature 41 °F 48 °F 35 °F (2012)
Degree Days  
Heating Degree Days 10    
Growing Degree Days 5 (Base 50)    
Moisture  
Dew Point 47 °F    
Average Humidity 76    
Maximum Humidity 100    
Minimum Humidity 36    
Precipitation  
Precipitation 0.00 in - - ()
Sea Level Pressure  
Sea Level Pressure 30.24 in    
Wind  
Wind Speed 4 mph ()    
Max Wind Speed 10 mph    
Max Gust Speed 18 mph    
Visibility 7.2 miles    
Events      
Averages and records for this station are not official NWS values.
T = Trace of Precipitation, MM = Missing Value Source: Averaged Metar Reports

Daily Weather History Graph

Daily Weather History Graph

Search for Another Location

Airport or City:

Trip Planner

Search our weather history database for the weather conditions in past years. The results will help you decide how hot, cold, wet, or windy it might be!

Date:

Astronomy

May. 17, 2014 Rise Set
Actual Time 5:48 AM CEST 9:30 PM CEST
Civil Twilight 5:06 AM CEST 10:12 PM CEST
Nautical Twilight 4:09 AM CEST 11:10 PM CEST
Astronomical Twilight 2:40 AM CEST 12:42 AM CEST
Moon No Moon Rise 8:15 AM CEST (5/17)
Length of Visible Light 17h 05m
Length of Day
15h 42m
Waning Gibbous, 91% of the Moon is Illuminated
May 17
Waning Gibbous
May 21
Last Quarter
May 28
New
Jun 5
First Quarter
Jun 13
Full

Hourly Weather History & Observations

Time (CEST) Temp. Windchill Dew Point Humidity Pressure Visibility Wind Dir Wind Speed Gust Speed Precip Events Conditions
12:00 AM 49 °F - 46 °F 83% 30.36 in 12 mi NNE 4.5 mph - -  
12:25 AM 50.0 °F - 46.4 °F 87% 30.33 in 6.2 mi NNE 5.8 mph - N/A   Unknown
12:55 AM 50.0 °F - 46.4 °F 87% 30.33 in 6.2 mi NNE 5.8 mph - N/A   Unknown
1:00 AM 49 °F - 45 °F 83% 30.35 in 11 mi NNE 4.5 mph - -  
1:25 AM 48.2 °F - 44.6 °F 87% 30.33 in 6.2 mi East 3.5 mph - N/A   Unknown
1:55 AM 48.2 °F - 46.4 °F 93% 30.33 in 6.2 mi ENE 2.3 mph - N/A   Unknown
2:00 AM 47 °F - 45 °F 90% 30.34 in 8 mi ENE 2.2 mph - -   Partly Cloudy
2:25 AM 46.4 °F - 44.6 °F 93% 30.33 in 6.2 mi East 2.3 mph - N/A   Unknown
2:55 AM 44.6 °F - 44.6 °F 100% 30.30 in 5.6 mi ENE 2.3 mph - N/A   Mist
3:00 AM 45 °F - 44 °F 94% 30.32 in 5 mi ENE 2.2 mph - -   Mist
3:25 AM 44.6 °F 43.1 °F 42.8 °F 93% 30.30 in 5.6 mi ENE 3.5 mph - N/A   Mist
3:45 AM 46.4 °F 44.3 °F 44.6 °F 93% 30.30 in 4.3 mi ENE 4.6 mph - N/A   Mist
3:55 AM 46.4 °F 45.2 °F 44.6 °F 93% 30.30 in 4.3 mi ENE 3.5 mph - N/A   Mist
4:00 AM 45 °F - 44 °F 95% 30.30 in 4 mi East 4.5 mph - -   Mist
4:25 AM 44.6 °F - 42.8 °F 93% 30.27 in 4.3 mi ENE 2.3 mph - N/A   Mist
4:31 AM 42.8 °F - 42.8 °F 100% 30.27 in 2.8 mi ENE 2.3 mph - N/A   Mist
4:34 AM 42.8 °F 41.1 °F 42.8 °F 100% 30.27 in 3.1 mi ENE 3.5 mph - N/A   Mist
4:40 AM 42.8 °F - 42.8 °F 100% 30.27 in - ENE 2.3 mph - N/A   Mist
4:47 AM 42.8 °F - 41.0 °F 93% 30.27 in 3.1 mi ENE 2.3 mph - N/A   Mist
4:55 AM 42.8 °F - 41.0 °F 93% 30.27 in 3.7 mi ENE 2.3 mph - N/A   Mist
5:00 AM 43 °F - 42 °F 93% 30.29 in 4 mi East 2.2 mph - -   Mist
5:05 AM 42.8 °F 41.1 °F 41.0 °F 93% 30.27 in 5.0 mi ENE 3.5 mph - N/A   Mist
5:12 AM 41.0 °F 39.0 °F 41.0 °F 100% 30.27 in 4.3 mi ENE 3.5 mph - N/A   Mist
5:13 AM 42.8 °F 41.1 °F 41.0 °F 93% 30.27 in - ENE 3.5 mph - N/A   Mist
5:25 AM 42.8 °F 41.1 °F 41.0 °F 93% 30.27 in 3.1 mi NE 3.5 mph - N/A   Mist
5:29 AM 42.8 °F 41.1 °F 42.8 °F 100% 30.27 in - NE 3.5 mph - N/A   Mist
5:34 AM 42.8 °F 41.1 °F 42.8 °F 100% 30.27 in 3.1 mi NNE 3.5 mph - N/A   Mist
5:44 AM 42.8 °F - 42.8 °F 100% 30.27 in - NNE 2.3 mph - N/A   Mist
5:55 AM 44.6 °F - 44.6 °F 100% 30.27 in - NE 1.2 mph - N/A   Mist
6:00 AM 45 °F - 45 °F 98% 30.29 in 3 mi NE 2.2 mph - -   Mist
6:05 AM 46.4 °F - 44.6 °F 93% 30.27 in - NE 2.3 mph - N/A   Mist
6:25 AM 44.6 °F - 42.8 °F 93% 30.27 in - ENE 2.3 mph - N/A   Mist
6:26 AM 44.6 °F - 44.6 °F 100% 30.27 in - ENE 2.3 mph - N/A   Mist
6:39 AM 44.6 °F 43.1 °F 44.6 °F 100% 30.27 in - ENE 3.5 mph - N/A   Mist
6:55 AM 46.4 °F - 46.4 °F 100% 30.27 in 3.1 mi ENE 2.3 mph - N/A   Mist
6:59 AM 46.4 °F - 44.6 °F 93% 30.27 in 2.8 mi ENE 2.3 mph - N/A   Mist
7:00 AM 46 °F - 46 °F 99% 30.29 in 3 mi ENE 2.2 mph - -   Mist
7:03 AM 46.4 °F - 46.4 °F 100% 30.27 in 2.2 mi ENE 2.3 mph - N/A   Mist
7:19 AM 48.2 °F - 48.2 °F 100% 30.27 in - ENE 2.3 mph - N/A   Mist
7:25 AM 50.0 °F - 48.2 °F 94% 30.27 in - ENE 2.3 mph - N/A   Mist
7:38 AM 51.8 °F - 50.0 °F 94% 30.27 in - ENE 4.6 mph - N/A   Mist
7:42 AM 51.8 °F - 50.0 °F 94% 30.27 in 3.7 mi ENE 4.6 mph - N/A   Mist
7:55 AM 51.8 °F - 50.0 °F 94% 30.27 in 4.3 mi ENE 4.6 mph - N/A   Mist
8:00 AM 53 °F - 49 °F 84% 30.29 in 4 mi ENE 4.5 mph - -   Mist
8:05 AM 53.6 °F - 50.0 °F 88% 30.27 in 5.0 mi ENE 4.6 mph - N/A   Mist
8:18 AM 53.6 °F - 50.0 °F 88% 30.27 in 5.6 mi ENE 5.8 mph - N/A   Mist
8:25 AM 53.6 °F - 50.0 °F 88% 30.27 in 5.6 mi ENE 5.8 mph - N/A   Mist
8:55 AM 55.4 °F - 48.2 °F 77% 30.27 in 6.2 mi East 4.6 mph - N/A   Unknown
9:00 AM 56 °F - 49 °F 69% 30.29 in 9 mi East 4.5 mph - -  
9:25 AM 57.2 °F - 50.0 °F 77% 30.27 in 6.2 mi ENE 5.8 mph - N/A   Unknown
9:55 AM 59.0 °F - 50.0 °F 72% 30.27 in 6.2 mi East 5.8 mph - N/A   Unknown
10:00 AM 59 °F - 48 °F 59% 30.28 in 12 mi East 6.7 mph - -  
10:25 AM 60.8 °F - 50.0 °F 68% 30.27 in 6.2 mi ENE 3.5 mph - N/A   Unknown
10:55 AM 60.8 °F - 48.2 °F 63% 30.27 in 6.2 mi East 4.6 mph - N/A   Unknown
11:00 AM 62 °F - 49 °F 54% 30.28 in 19 mi ENE 4.5 mph - -  
11:25 AM 62.6 °F - 48.2 °F 59% 30.27 in 6.2 mi NNE 6.9 mph - N/A   Unknown
11:55 AM 62.6 °F - 48.2 °F 59% 30.24 in 6.2 mi NNE 6.9 mph - N/A   Unknown
12:00 PM 64 °F - 48 °F 45% 30.26 in 15 mi North 6.7 mph - -   Scattered Clouds
12:25 PM 64.4 °F - 44.6 °F 49% 30.24 in 6.2 mi NNE 6.9 mph - N/A   Unknown
12:55 PM 64.4 °F - 44.6 °F 49% 30.24 in 6.2 mi North 8.1 mph - N/A   Unknown
1:00 PM 64 °F - 46 °F 41% 30.24 in 19 mi NE 6.7 mph - -  
1:25 PM 64.4 °F - 44.6 °F 49% 30.21 in 6.2 mi NE 6.9 mph - N/A   Partly Cloudy
1:55 PM 66.2 °F - 44.6 °F 46% 30.21 in 6.2 mi NE 6.9 mph - N/A   Unknown
2:00 PM 66 °F - 46 °F 37% 30.22 in 22 mi NNE 6.7 mph - -   Partly Cloudy
2:25 PM 66.2 °F - 44.6 °F 46% 30.21 in 6.2 mi NE 6.9 mph - N/A   Unknown
2:55 PM 66.2 °F - 46.4 °F 49% 30.18 in 6.2 mi North 6.9 mph - N/A   Unknown
3:00 PM 66 °F - 46 °F 38% 30.20 in 18 mi NNE 6.7 mph - -  
3:25 PM 68.0 °F - 48.2 °F 49% 30.18 in 6.2 mi NNE 6.9 mph - N/A   Unknown
3:55 PM 68.0 °F - 48.2 °F 49% 30.18 in 6.2 mi North 6.9 mph 18.4 mph N/A   Unknown
4:00 PM 68 °F - 47 °F 36% 30.18 in 19 mi NNE 8.9 mph - -  
4:25 PM 68.0 °F - 48.2 °F 49% 30.15 in 6.2 mi NE 8.1 mph - N/A   Unknown
4:55 PM 68.0 °F - 48.2 °F 49% 30.15 in 6.2 mi NNE 6.9 mph - N/A   Unknown
5:00 PM 69 °F - 49 °F 38% 30.17 in 19 mi North 8.9 mph - -  
5:25 PM 68.0 °F - 48.2 °F 49% 30.15 in 6.2 mi NE 10.4 mph - N/A   Unknown
5:55 PM 68.0 °F - 46.4 °F 46% 30.15 in 6.2 mi NNE 8.1 mph - N/A   Unknown
6:00 PM 68 °F - 47 °F 36% 30.16 in 18 mi NNE 8.9 mph - -  
6:25 PM 68.0 °F - 48.2 °F 49% 30.15 in 6.2 mi NNE 8.1 mph - N/A   Scattered Clouds
6:55 PM 68.0 °F - 48.2 °F 49% 30.12 in 6.2 mi NE 6.9 mph - N/A   Partly Cloudy
7:00 PM 67 °F - 50 °F 43% 30.15 in 17 mi NNE 4.5 mph - -   Scattered Clouds
7:25 PM 66.2 °F - 50.0 °F 56% 30.12 in 6.2 mi NE 6.9 mph - N/A   Unknown
7:55 PM 64.4 °F - 51.8 °F 64% 30.12 in 6.2 mi North 6.9 mph - N/A   Mostly Cloudy
8:00 PM 65 °F - 51 °F 52% 30.14 in 17 mi NNW 6.7 mph - -   Partly Cloudy
8:25 PM 64.4 °F - 51.8 °F 64% 30.12 in 6.2 mi NNW 6.9 mph - N/A   Partly Cloudy
8:55 PM 62.6 °F - 51.8 °F 68% 30.12 in 6.2 mi North 5.8 mph - N/A   Unknown
9:00 PM 62 °F - 51 °F 58% 30.13 in 14 mi North 4.5 mph - -   Scattered Clouds
9:25 PM 60.8 °F - 50.0 °F 68% 30.12 in 6.2 mi North 4.6 mph - N/A   Mostly Cloudy
9:55 PM 59.0 °F - 50.0 °F 72% 30.12 in 6.2 mi North 3.5 mph - N/A   Unknown
10:00 PM 58 °F - 50 °F 68% 30.14 in 11 mi North 4.5 mph - -  
10:25 PM 57.2 °F - 50.0 °F 77% 30.12 in 6.2 mi North 3.5 mph - N/A   Unknown
10:55 PM 53.6 °F - 50.0 °F 88% 30.12 in 6.2 mi North 2.3 mph - N/A   Unknown
11:00 PM 53 °F - 51 °F 90% 30.13 in 9 mi North 2.2 mph - -  
11:25 PM 53.6 °F - 51.8 °F 94% 30.12 in 6.2 mi Calm Calm - N/A   Unknown
11:55 PM 51.8 °F - 50.0 °F 94% 30.12 in 6.2 mi ENE 2.3 mph - N/A   Unknown